Location: Pulvis Stellarum Observatory
(41.6962°N, 71.4263°W)
Time: 03:44:09
(UTC-04:00)

Daily predictions for brighter satellites

Satellite Brightness Start Highest point End
(mag) Time Altitude Azimuth Time Altitude Azimuth Time Altitude Azimuth
Timation 2 Rocket 4.1 00:08:03 56° SSW 00:09:42 82° ESE 00:16:32 10° NNE
CZ-4B R/B 2.7 00:10:59 43° N 00:10:59 43° N 00:13:38 10° N
Cosmos 1515 Rocket 4.4 00:06:01 10° N 00:09:58 42° ENE 00:09:58 42° ENE
Cosmos 1378 4.2 00:14:58 45° N 00:14:58 45° N 00:17:43 10° N
CENTAUR R/B 3.4 00:16:40 31° ESE 00:16:40 31° ESE 00:22:03 10° NE
Cosmos 1689 Rocket 4.3 00:18:39 28° N 00:18:39 28° N 00:20:19 10° N
Cosmos 2026 Rocket 4.4 00:16:02 41° WSW 00:17:39 51° WNW 00:23:33 10° N
CZ-4C R/B 2.7 00:17:09 35° WSW 00:19:17 55° NW 00:25:13 10° NNE
CZ-2C R/B 3.7 00:15:15 10° NNE 00:20:09 32° E 00:20:11 32° E
Meteor 1-24 Rocket 4.2 00:20:08 47° WSW 00:21:28 57° WNW 00:27:16 10° N
Cosmos 2228 Rocket 3.4 00:24:11 10° NNW 00:27:58 59° NW 00:27:58 59° NW
Helios 1A Rocket 3.6 00:25:02 10° NNE 00:28:09 50° NE 00:28:09 50° NE
ISS -0.2 00:28:04 10° NNW 00:30:14 16° N 00:32:23 10° NE
NOSS 3-2 (C) 4.0 00:27:22 31° WSW 00:30:18 57° NW 00:36:56 10° NNE
In-Cosmos 22 4.0 00:33:15 76° SSE 00:33:39 82° E 00:39:21 10° NNE
Cosmos 1354 Rocket 3.9 00:35:56 81° ESE 00:35:58 81° ESE 00:41:18 10° NNE
Cosmos 841 Rocket 3.4 00:31:19 10° NNW 00:36:38 89° ENE 00:36:44 86° SE
Cosmos 1503 Rocket 3.9 00:40:30 84° SE 00:40:36 85° ESE 00:45:57 10° NNE
Cosmos 1867 3.9 00:40:08 51° W 00:41:12 61° NW 00:46:39 10° NNE
Cosmos 1066 4.5 00:41:18 79° SSW 00:41:38 86° WNW 00:47:07 10° N
Cosmos 2151 4.0 00:48:24 38° ENE 00:48:24 38° ENE 00:51:41 10° NNE
ALOS 2 3.6 00:48:44 37° WNW 00:48:44 37° WNW 00:52:07 10° NNW
Cosmos 2344 3.6 00:46:20 46° SSW 00:49:06 89° ESE 00:57:56 10° NE
Meteor 2-20 Rocket 4.3 00:52:57 67° S 00:53:52 88° W 01:00:05 10° N
Cosmos 2369 4.2 00:48:33 10° NW 00:53:43 43° WSW 00:53:43 43° WSW
Cosmos 883 Rocket 4.4 00:47:57 10° N 00:54:18 81° W 00:55:18 64° SSW
Cosmos 1151 Rocket 3.4 00:50:59 10° N 00:54:35 60° NNE 00:54:35 60° NNE
Nadezhda 2 Rocket 4.4 01:04:34 64° S 01:05:39 90° NNW 01:11:57 10° N
Meteor 1-21 Rocket 4.4 01:06:07 54° WSW 01:06:51 59° WNW 01:12:27 10° N
Aureole 1 Rocket 3.7 01:02:28 10° NNW 01:07:22 75° ENE 01:08:17 61° SE
H-2A R/B 4.3 01:05:50 10° NNW 01:08:33 20° WNW 01:08:33 20° WNW
Cosmos 1980 Rocket 2.5 01:04:20 10° NNW 01:09:56 62° ENE 01:11:15 48° ESE
CZ-2C R/B 3.3 01:15:01 58° SE 01:16:01 71° ENE 01:21:46 10° N
Lacrosse 5 1.7 01:11:00 10° NW 01:15:56 84° WNW 01:15:56 84° WNW
Sich 1 3.9 01:24:20 41° E 01:24:20 41° E 01:28:22 10° NNE
Cosmos 1300 3.6 01:23:21 10° N 01:26:29 46° NE 01:26:29 46° NE
Cosmos 1697 Rocket 2.8 01:23:28 10° NNW 01:29:01 58° WSW 01:29:07 58° WSW
Cosmos 540 Rocket 3.3 01:26:24 10° NNW 01:31:37 80° WSW 01:31:46 79° SW
Cosmos 2082 Rocket 3.2 01:31:09 31° W 01:32:49 38° WNW 01:38:06 10° N
Cosmos 2315 Rocket 4.2 01:27:27 10° NNW 01:33:36 56° W 01:34:36 51° SW
Cosmos 1833 Rocket 3.4 01:34:02 39° W 01:35:22 46° WNW 01:40:48 10° NNE
PSLV R/B 4.4 01:37:06 57° NW 01:37:06 57° NW 01:40:36 10° NNW
Cosmos 1745 Rocket 4.2 01:35:30 47° SSE 01:37:09 64° E 01:43:25 10° NNE
ATLAS 5 CENTAUR R/B 3.7 01:37:22 19° ESE 01:37:22 19° ESE 01:40:50 10° ENE
USA 215 4.3 01:33:20 10° ENE 01:38:49 28° SE 01:39:29 28° SE
Cosmos 1726 3.0 01:36:44 10° N 01:39:44 47° NE 01:39:44 47° NE
Lacrosse 5 rocket 2.1 01:37:42 10° NW 01:41:57 54° NE 01:43:29 35° E
Nadezhda 1 Rocket 4.3 01:36:07 10° N 01:42:11 59° E 01:44:18 39° SE
Cosmos 1437 Rocket 4.4 01:42:37 10° NNW 01:44:49 25° WNW 01:44:49 25° WNW
Meteor 2-11 Rocket 4.4 01:40:33 10° NNW 01:46:40 69° W 01:47:51 56° SSW
Cosmos 1455 4.0 01:50:47 10° NNE 01:53:56 24° ENE 01:54:41 23° E
Cosmos 1437 4.2 01:55:03 37° NNW 01:55:03 37° NNW 01:57:15 10° N
CZ-2C R/B 3.7 01:55:27 10° N 02:00:23 35° WNW 02:01:42 31° W
Cosmos 2058 3.6 02:01:55 43° WNW 02:01:55 43° WNW 02:05:37 10° N
Cosmos 1626 3.7 02:02:44 28° E 02:02:55 28° E 02:06:09 10° NNE
Landsat 4 3.9 02:03:18 68° NE 02:03:18 68° NE 02:06:45 10° N
Cosmos 332 Rocket 4.0 01:59:00 10° NNW 02:03:26 53° W 02:03:26 53° W
Cosmos 2360 4.1 01:59:20 10° NNW 02:05:01 69° WSW 02:06:05 56° SSW
CENTAUR R/B 3.1 02:03:49 31° WSW 02:06:37 51° NW 02:13:22 10° NNE
ISS -1.5 02:04:07 10° NW 02:05:58 28° NNW 02:05:58 28° NNW
SL-16 R/B 2.2 02:10:11 10° NNW 02:15:54 79° ENE 02:18:38 32° SSE
PSLV R/B 3.5 02:14:43 10° N 02:19:17 76° WNW 02:19:46 67° SW
Cosmos 968 Rocket 3.6 02:19:49 51° WSW 02:20:50 62° WNW 02:25:58 10° NNE
ASTEX 1 4.2 02:18:06 10° NNW 02:22:36 35° WNW 02:23:17 34° W
Cosmos 2292 Rocket 4.4 02:22:22 28° ESE 02:22:46 29° E 02:26:03 10° NNE
Cosmos 1633 Rocket 3.6 02:25:15 42° W 02:25:30 42° WNW 02:29:44 10° N
Cosmos 2322 Rocket 2.0 02:20:22 10° NNW 02:26:01 80° WSW 02:28:10 39° SSE
SL-08 R/B 3.7 02:24:12 33° SE 02:26:18 64° ENE 02:31:12 10° N
Cosmos 2242 Rocket 4.3 02:31:03 10° NNW 02:35:03 37° W 02:35:03 37° W
CZ-2D R/B 4.2 02:33:16 10° NE 02:37:00 19° E 02:40:45 10° SE
Meteor 2-10 4.2 02:39:16 10° NNW 02:44:28 60° W 02:46:09 41° SSW
Meteor 1-4 Rocket 2.8 02:40:44 10° NNW 02:44:25 56° W 02:44:25 56° W
Cosmos 1869 3.2 02:41:10 10° N 02:45:10 89° E 02:45:59 56° S
Cosmos 1703 Rocket 4.5 02:41:04 10° N 02:45:15 44° ENE 02:47:58 19° SE
Cosmos 1271 Rocket 2.8 02:42:32 10° NNW 02:46:09 53° W 02:46:09 53° W
Cosmos 1703 4.1 02:46:24 36° W 02:46:34 36° WNW 02:50:16 10° N
Cosmos 1470 Rocket 3.9 02:47:03 44° WSW 02:47:48 50° W 02:52:07 10° N
Cosmos 2181 Rocket 3.9 02:43:49 10° N 02:50:01 90° ESE 02:53:53 25° S
ERS-2 2.3 02:47:41 10° N 02:51:19 55° WNW 02:51:43 51° W
NPP 3.6 02:46:28 10° N 02:51:51 76° WNW 02:54:03 37° SSW
Cosmos 1933 Rocket 4.0 02:51:18 41° WSW 02:52:05 46° WNW 02:56:21 10° N
Cosmos 1980 Rocket 3.7 02:49:37 10° WNW 02:53:00 18° W 02:53:00 18° W
Cosmos 371 Rocket 4.4 02:49:28 10° NW 02:53:20 27° W 02:53:20 27° W
Cosmos 2360 Rocket 2.6 02:49:06 10° NNW 02:54:43 64° ENE 03:00:18 10° SE
OAO 3 Rocket 4.0 02:58:04 30° SSE 02:58:04 30° SSE 03:01:22 10° SE
Cosmos 923 Rocket 4.1 02:54:55 10° NNW 03:00:04 57° WSW 03:02:13 33° SSW
Okean 1-7 4.2 02:56:33 10° N 03:00:42 40° ENE 03:04:43 10° SSE
Cosmos 304 Rocket 3.7 02:55:54 10° NNW 03:00:46 83° WSW 03:03:43 24° SSE
Cosmos 1346 3.0 03:01:02 76° SSE 03:01:11 82° E 03:04:16 10° NNE
Spot 4 Rocket 4.2 02:59:59 10° NNE 03:05:08 71° ESE 03:08:01 27° S
EO 1 Del DPAF 4.4 03:01:44 11° SE 03:05:12 43° ENE 03:08:56 10° N
Cosmos 773 Rocket 4.5 03:02:27 10° NW 03:07:12 39° WSW 03:08:29 33° SW
Cosmos 1680 Rocket 3.5 03:02:58 10° NNW 03:08:08 64° WSW 03:11:08 25° S
BREEZE-M TANK 2.9 03:04:58 10° W 03:09:58 49° N 03:12:26 10° ENE
IRS-1C 4.1 03:08:24 10° N 03:13:44 71° WNW 03:16:32 29° SSW
Cosmos 2074 Rocket 4.1 03:11:07 19° S 03:15:45 74° E 03:22:00 10° N
Cosmos 2219 3.7 03:12:19 22° S 03:15:57 57° ESE 03:21:35 10° NNE
Cosmos 2322 3.7 03:11:33 10° NNW 03:17:19 86° WSW 03:23:02 10° SSE
CBERS-1 4.4 03:14:59 10° N 03:19:55 49° WNW 03:22:25 27° SW
Resurs 1-4 Rocket 2.9 03:14:53 10° NNE 03:20:02 48° E 03:24:35 13° S
Lacrosse 5 rocket 3.2 03:17:32 10° WNW 03:19:06 17° W 03:19:06 17° W
ATLAS 5 CENTAUR R/B 2.2 03:18:55 27° WSW 03:21:27 57° NW 03:26:40 10° NNE
UNK 4.4 03:17:33 10° SSE 03:22:01 55° ENE 03:26:30 10° N
USA 215 3.3 03:15:40 10° NE 03:22:13 80° NW 03:26:49 21° WSW
USA 161 1.6 03:23:27 43° NW 03:23:27 43° NW 03:25:20 10° NNW
ERS-1 4.5 03:18:42 10° NNE 03:23:51 86° WNW 03:27:08 23° SSW
Cosmos 2184 Rocket 4.1 03:19:10 18° S 03:24:06 82° E 03:30:28 10° N
Cosmos 1933 3.4 03:21:50 10° NNW 03:25:48 59° W 03:27:41 28° SSW
Meteor 1-26 Rocket 4.3 03:21:08 10° N 03:26:42 77° E 03:32:12 10° SSE
ARIANE 5 R/B 2.5 03:21:37 10° NNE 03:26:43 77° ESE 03:30:18 19° S
Cosmos 2327 Rocket 4.4 03:24:03 19° S 03:28:39 89° W 03:34:55 10° N
Cosmos 1455 3.7 03:26:42 10° NW 03:29:31 20° W 03:29:43 20° W
FALCON 9 R/B 2.7 03:34:45 11° SE 03:34:45 11° SE 03:34:59 10° SE
SL-16 R/B 2.6 03:28:34 10° SSE 03:34:50 87° ENE 03:41:09 10° NNW
IRS-1D 3.6 03:29:28 10° NNE 03:34:51 82° ESE 03:39:01 17° S
ATLAS CENTAUR R/B 1.6 03:32:15 10° NNW 03:36:58 80° NE 03:41:16 10° SE
Cosmos 1898 Rocket 3.5 03:33:25 20° SSW 03:37:01 83° ESE 03:42:13 10° NNE
Okean O Rocket 3.3 03:34:24 10° NE 03:38:17 29° E 03:42:06 10° SSE
Cosmos 1626 3.9 03:37:27 16° W 03:38:22 18° WNW 03:40:59 10° NNW
Cosmos 2333 Rocket 4.3 03:34:50 10° N 03:39:48 30° NE 03:44:46 10° ESE
Cosmos 1937 Rocket 3.9 03:36:07 15° S 03:40:24 64° ESE 03:45:39 10° NNE
SME Rocket 4.0 03:43:21 10° SSE 03:49:31 66° ENE 03:53:51 10° N
ADEOS 4.3 03:45:05 10° N 03:49:54 38° WNW 03:53:20 17° SW
COSMOS 2428 2.7 03:44:57 10° NNW 03:50:40 88° ENE 03:56:21 10° SSE
Cosmos 1869 Rocket 4.2 03:50:55 20° SW 03:53:31 39° WNW 03:57:43 10° N
Cosmos 1892 3.6 03:49:55 10° SSE 03:53:40 49° E 03:57:25 10° NNE
MOS 1-B 4.4 03:47:51 10° NNE 03:53:41 89° ESE 03:59:20 11° SSW
Cosmos 389 Rocket 2.8 03:52:07 10° N 03:55:49 71° E 03:59:29 10° SSE
H-2A ROCKET BODY 3.3 03:57:35 13° SSW 03:57:35 13° SSW 03:58:27 10° S
CZ-2D R/B 4.0 03:52:42 10° NNE 03:56:46 55° E 04:00:43 10° S
SL-16 R/B 3.9 03:56:26 10° WNW 03:59:13 14° W 04:00:26 13° WSW
Cosmos 2150 Rocket 4.3 03:56:40 17° SW 04:00:46 59° WNW 04:06:08 10° NNE
Cosmos 2237 Rocket 3.8 03:57:26 10° N 04:02:44 38° ENE 04:08:00 10° SE
NOSS 3-1 (C) 4.3 03:58:14 10° S 04:03:41 42° ESE 04:09:38 10° NE
Cosmos 2237 4.3 04:07:21 10° NNW 04:12:59 59° WSW 04:18:35 10° S
Cosmos 220 Rocket 4.0 04:09:05 10° SSW 04:13:17 84° ESE 04:17:36 10° NNE
Cosmos 2219 Rocket 2.5 04:09:41 10° NNW 04:15:17 70° ENE 04:20:50 10° SSE
UNKNOWN OBJECT B 2.9 04:11:43 10° N 04:15:30 60° WNW 04:19:21 10° SSW
USA 129 3.4 04:16:19 11° WNW 04:16:19 11° WNW 04:16:28 10° WNW
CZ-2D R/B 2.4 04:12:16 10° N 04:17:23 53° WNW 04:22:32 10° SSW
Cosmos 1238 Rocket 4.4 04:13:01 10° N 04:19:41 67° E 04:25:32 10° SSE
Abrixas 3.5 04:18:59 10° NW 04:22:01 50° NNE 04:25:01 10° E
Cosmos 1733 Rocket 3.0 04:19:14 10° SSW 04:23:34 71° W 04:27:57 10° N
Meteor 2-3 Rocket 4.2 04:22:46 10° SSW 04:28:20 48° WNW 04:33:57 10° N
Meteor 2-10 Rocket 3.5 04:24:27 10° NNW 04:29:32 72° W 04:34:44 10° S
USA 229 DEB 4.2 04:24:13 10° WSW 04:30:56 51° NW 04:37:45 10° NNE
USA 229 4.2 04:24:19 10° WSW 04:31:03 51° NW 04:37:52 10° NNE
Meteor 2-6 Rocket 4.3 04:27:26 10° N 04:32:55 86° E 04:38:31 10° S
SL-16 R/B 4.4 04:28:41 10° N 04:33:43 32° NE 04:38:43 10° ESE
Coronas F rocket 1.3 04:32:05 10° S 04:34:49 83° E 04:37:34 10° N
NOSS 0 Rocket 4.0 04:29:09 10° NNW 04:35:19 89° NE 04:41:29 10° SSE
ADEOS II 4.1 04:30:56 10° NE 04:35:26 28° E 04:39:54 10° SSE
GPS 2-05 Rocket1 4.3 04:33:02 10° WSW 04:35:29 19° SSW 04:38:00 10° SSE
Meteor 1-27 Rocket 4.3 04:30:40 10° N 04:36:35 68° ENE 04:42:29 10° SSE
Cosmos 2360 Rocket 3.6 04:34:30 10° WNW 04:38:07 18° W 04:41:43 10° SW
Cosmos 990 Rocket 4.3 04:34:40 10° SW 04:39:43 54° WNW 04:44:47 10° N
Cosmos 2341 Rocket 4.1 04:33:59 10° SSW 04:40:14 64° W 04:46:35 10° N
MOZ.5/SAFIR/RUBIN 5/SL-8 3.8 04:36:20 10° S 04:41:02 81° W 04:45:47 10° NNW
Cosmos 2227 Rocket 2.4 04:37:56 10° SSW 04:43:34 77° ESE 04:49:14 10° NNE
Intercosmos 24 Rocket 4.1 04:40:02 10° SSW 04:43:46 75° W 04:47:21 10° N
Nadezhda 3 Rocket 4.3 04:40:46 10° NNW 04:46:34 45° W 04:52:21 10° SSW
